TITAN 4B DEB, 35415

Orbit data source: Space-Track

TITAN 4B DEB, 35415 is space debris in LEO originally from a launch on Thu, 17 Aug 2000 UTC launched from the Air Force Western Test Range (AFWTR). Debris objects in space refer to the collection of defunct objects orbiting the Earth. Examples of debris include non-operational satellites, rocket bodies, and fragments generated from explosions, collisions, or faulty payload assembly.

Loading next visibility...
Identifier
35415, 2000-047D
Orbit
LEO
Country
Flag of USUS
Related business
Manufacturer
LMSS Denver
Mission
Spacecraft
Bus & Motor
Unknown
Mass
Unknown
Launch date (UTC)
2000-08-17 (25 years ago)
Launch vehicle
Unknown
Launch site
Air Force Western Test Range (AFWTR)
Object type
Payload
Rocket body
Debris
Shape & HBR
Unknown shape, 0.1 m
Radar Cross Section
Small (<0.1 m²)

Expand to show TLE details & history
Last TLE update: 11 hours ago

TLE from 11 hours ago
0 TITAN 4B DEB
1 35415U 00047D   25290.78001952  .00000730  00000-0  78293-4 0  9992
2 35415  67.9961 204.6866 0064879 250.2504 109.1633 14.93251217 44930
Epoch: 2025-10-17T18:43Z
TLE epoch observation values (Epoch: 2025-10-17T18:43:13.686Z)
Latitude
0.00003°
Longitude
-102.64089°
Altitude
605.175 km
Speed
7.549 km/s
True Right ascension
13h 38m 44s
True Declination
0° 00' 00"
Sunlit
Object was in daylight at epoch
Visualization orbit readout
Latitude
Unknown
Longitude
Unknown
Altitude
Unknown
Speed
Unknown
Apparent Right ascension
Unknown
Apparent Declination
Unknown
Sunlit
N/A
Visualization observer readout
Local Sidereal Time
00:15:58
Azimuth
Unknown
Elevation
Unknown
Doppler factor
Unknown
Orbital elements
Apogee altitude
631.163 km
Perigee altitude
540.798 km
Semi-major axis
6,964.118 km
Eccentricity
0.00649
Inclination
67.9961°
RAAN
204.6866°
Arg. of periapsis
250.2504°
True anomaly
109.86368°
Mean anomaly
109.1633°
Eccentric anomaly
109.51368°
Mean motion
3.7346 °/min
Orbital period
96.4 mins
BSTAR
0.000078293
Loading maneuver chart data...
Computing Atmospheric mass density...
Loading historical data...
Loading historical data...
Loading historical data...
Loading historical data...
Loading historical data...
Loading historical data...
Loading historical data...
Other satellites on launch #47 in the year 2000 (2000-08-17 UTC)

Documentation

Showing up to 5 results
|